Preview of NWS' New Version of Forecast
This preview is not operational and should not be used for support decisions.
Latest weather observations around

Little Rock, Adams Field (KLIT)

Using English Units (Switch to International System of Units)
Date/ Time (CDT) Wind (mph) Vis. (mi) Weather Sky Cond. Temp (°F) Rel. Humidity Wind Chill (°F) Heat Index (°F) Pressure Precip. (in)
Air Dwpt 6 hour Altimeter (inHg) Sea level (inHg) 1 hr 3 hr 6 hr
Max Min
Aug 20 16:53 S 9 10 Partly Cloudy FEW045 SCT250 93 73     52%   102 29.97 29.97      
Aug 20 15:53 S 9 10 Partly Cloudy FEW046 SCT250 93 73     52%   102 30 29.99      
Aug 20 14:53 E 7 10 Partly Cloudy FEW042 SCT250 94 75     54%   106 30.02 30.02      
Aug 20 13:53 S 6 10 Mostly Cloudy BKN041 94 76     56%   107 30.04 30.04      
Aug 20 12:53 6 10 Mostly Cloudy BKN040 93 76     58%   106 30.05 30.05      
Aug 20 11:53 SE 7 10 Mostly Cloudy BKN033 BKN250 92 75     58%   103 30.06 30.05      
Aug 20 10:53 S 6 10 Mostly Clear FEW050 FEW250 90 76     64%   102 30.07 30.07      
Aug 20 09:53 Calm 10 Mostly Clear FEW250 87 77     72%   99 30.06 30.06      
Aug 20 08:53 3 10 Partly Cloudy SCT250 82 77     85%   90 30.05 30.05      
Aug 20 07:53 SSE 3 10 Partly Cloudy SCT250 78 76     93%   80 30.04 30.03      
Aug 20 06:53 Calm 7 Partly Cloudy SCT250 76 75     97%   78 30.02 30.01      
Aug 20 05:53 Calm 10 Mostly Clear FEW200 75 74     96%   77 30.02 30.01      
Aug 20 04:53 SSE 5 10 Clear CLR 76 75     97%   78 30.01 30.01      
Aug 20 03:53 Calm 10 Clear CLR 77 75     94%   79 30 29.99      
Aug 20 02:53 Calm 10 Clear CLR 79 75     88%   83 30 29.99      
Aug 20 01:53 SW 3 10 Clear CLR 80 75     85%   85 30.01 30.01      
Aug 20 00:53 S 7 10 Clear   80 76     87%   85 30.02 30.02      
Aug 19 23:53 SSE 3 10 Clear CLR 81 76     85%   87 30.03 30.02      
Aug 19 22:53 S 3 10 Clear CLR 82 76     82%   89 30.03 30.02      
Aug 19 21:53 ESE 7 10 Clear CLR 83 77     82%   92 30.01 30.01      
Aug 19 20:53 ESE 6 10 Mostly Clear FEW250 85 77     77%   95 29.98 29.98      
Aug 19 19:53 SSE 3 10 Mostly Clear FEW250 87 76     70%   98 29.97 29.96      
Aug 19 18:53 SSE 7 10 Mostly Clear FEW040 FEW250 92 75     58%   103 29.95 29.95      
Aug 19 17:53 SE 6 10 Mostly Clear FEW045 FEW250 92 74     56%   102 29.96 29.96      
Aug 19 16:53 5 10 Partly Cloudy SCT045 SCT250 95 74     51%   106 29.96 29.96      
Aug 19 15:53 SE 7 10 Partly Cloudy SCT045 SCT250 94 75     54%   106 29.96 29.96      
Aug 19 14:53 SE 6 10 Partly Cloudy SCT045 94 75     54%   106 29.98 29.98      
Aug 19 13:53 SE 6 10 Partly Cloudy SCT041 94 74     53%   104 30 30      
Aug 19 12:53 SE 5 10 Partly Cloudy SCT038 95 77     56%   110 30.01 30.01      
Aug 19 11:53 Calm 10 Mostly Clear FEW025 FEW110 92 77     62%   106 30.02 30.02      
Aug 19 10:53 Calm 10 Mostly Clear FEW110 88 76     68%   99 30.03 30.02      
Aug 19 09:53 SSW 5 10 Mostly Clear FEW110 83 75     77%   90 30.03 30.02      
Aug 19 08:53 W 3 10 Mostly Clear FEW110 80 75     85%   85 30.02 30.02      
Aug 19 07:53 S 3 10 Partly Cloudy FEW015 FEW150 SCT250 75 73     94%   77 30.02 30.01      
Aug 19 06:53 S 3 10 Clear CLR 73 72     96%   75 30 30      
Aug 19 05:53 Calm 10 Clear CLR 73 72     96%   75 29.98 29.98      
Aug 19 04:53 Calm 10 Clear CLR 73 72     96%   75 29.96 29.96      
Aug 19 03:53 SE 5 10 Clear CLR 73 72     96%   75 29.96 29.95      
Aug 19 02:53 Calm 10 Clear CLR 75 72     90%   76 29.95 29.95      
Aug 19 01:53 Calm 10 Clear CLR 76 72     88%   77 29.96 29.96      
Aug 19 00:53 Calm 10 Clear CLR 76 73     91%   77 29.97 29.96      
Aug 18 23:53 Calm 10 Clear CLR 75 73     94%   77 29.97 29.97      
Aug 18 22:53 ESE 3 10 Clear CLR 76 73     91%   77 29.97 29.96      
Aug 18 21:53 Calm 10 Clear CLR 75 71     88%   76 29.95 29.95      
Aug 18 20:53 E 3 10 Mostly Clear FEW250 76 71     85%   77 29.94 29.94      
Aug 18 19:53 N 6 10 Partly Cloudy FEW110 FEW180 SCT250 77 71     82%   78 29.93 29.92      
Aug 18 18:53 3 10 Mostly Cloudy FEW110 BKN180 BKN220 78 71     79%   79 29.86 29.85 0   0
Aug 18 17:53 SE 5 10 Mostly Cloudy FEW060 FEW090 BKN110 BKN200 74 70     87%   75 29.85 29.85 0    
Aug 18 16:53 WSW 3 10 Mostly Cloudy FEW028 SCT030 BKN100 BKN200 76 68     76%   77 29.91 29.91 0    
Aug 18 16:35 SW 6 10 Cloudy FEW028 SCT030 BKN110 OVC200 76 68     76%   77 29.92   0    
Aug 18 16:20 SW 10 10 Thunderstorms FEW028 SCT035 BKN110 OVC200 77 69     77%   78 29.93   0    
Aug 18 16:01 SW 10 8 Thunderstorms and Rain BKN035 BKN110 BKN200 77 72     84%   78 29.91   0    
Aug 18 15:53 WSW 13 8 Thunderstorms and Rain BKN035 BKN110 BKN200 78 72     82%   79 29.92 29.92 0 0  
Aug 18 15:44 W 15 8 Thunderstorms and Rain BKN035 BKN100 BKN120 80 71     74%   84 29.94   0    
Aug 18 14:53 NNW 17 5 Thunderstorms and Rain BKN035 BKN090 BKN250 80 69     69%   83 29.92 29.91 0    
Aug 18 14:16 W 11 10 Thunderstorms SCT035 BKN250 94 75     54%   106 29.92        
Aug 18 13:53 SSW 6 10 Mostly Cloudy SCT035 BKN250 92 76     60%   104 29.93 29.92      
Aug 18 12:53 WSW 13 10 Partly Cloudy SCT032 SCT250 90 75     62%   101 29.94 29.93      
Aug 18 11:53 WSW 8 10 Mostly Cloudy SCT025 SCT100 BKN250 88 76     68%   99 29.95 29.95      
Aug 18 10:53 WSW 10 10 Mostly Cloudy SCT025 BKN130 BKN250 86 75     70%   95 29.96 29.96      
Aug 18 09:53 WSW 10 10 Partly Cloudy FEW025 SCT130 SCT250 84 75     74%   92 29.94 29.94      
Aug 18 08:53 6 10 Partly Cloudy FEW025 SCT130 SCT250 80 74     82%   85 29.94 29.93      
Aug 18 07:53 SW 5 10 Partly Cloudy SCT130 SCT250 76 72     88%   77 29.93 29.93      
Aug 18 06:53 SSW 5 10 Partly Cloudy FEW150 SCT250 74 71     91%   75 29.91 29.91      
Aug 18 05:53 SSW 6 10 Mostly Clear FEW250 74 71     91%   75 29.9 29.9      
Aug 18 04:53 SSW 3 10 Mostly Clear FEW250 74 71     91%   75 29.91 29.9      
Aug 18 03:53 S 6 10 Mostly Clear FEW200 74 71     91%   75 29.89 29.89      
Aug 18 02:53 S 3 10 Mostly Clear FEW200 75 71     88%   76 29.89 29.89      
Aug 18 01:53 SSE 6 10 Mostly Clear FEW200 76 71     85%   77 29.9 29.9      
Aug 18 00:53 S 6 10 Mostly Clear FEW200 77 72     84%   78 29.91 29.9      
Aug 17 23:53 SSE 6 10 Partly Cloudy SCT200 78 72     82%   79 29.91 29.9      
Aug 17 22:53 SSE 5 10 Partly Cloudy SCT200 79 73     82%   82 29.91 29.91      
Aug 17 21:53 SE 8 10 Partly Cloudy SCT200 83 72     70%   88 29.89 29.89      
Aug 17 20:53 ESE 7 10 Partly Cloudy SCT200 83 72     70%   88 29.88 29.88      
Aug 17 19:53 SE 6 10 Mostly Clear FEW200 86 73     65%   93 29.87 29.87      
Aug 17 18:53 SE 9 10 Mostly Clear FEW050 90 72     56%   97 29.86 29.86      
Aug 17 17:53 SSE 8 10 Mostly Clear FEW050 92 71     51%   99 29.87 29.87      
May 14 19:53 S 6 10 Clear   82 64     55%   84 29.88 29.88      
May 14 06:53 SE 3 10 Mostly Cloudy BKN250 69 69     100%     30.01 30.01      
May 13 23:53 SSW 7 10 Clear CLR 74 69     85%   75 30.01 30.01      
May 13 21:53 S 8 10 Clear CLR 75 69     82%   76 29.99 29.98      
May 13 08:53 WSW 7 10 Clear CLR 76 67     74%   77 30.09 30.09      
May 13 05:53 Calm 10 Clear CLR 66 63     90%     30.05 30.04      
May 13 01:53 S 7 10 Clear CLR 69 63     81%     30.01 30.01      
May 12 15:53 S 9 10 Clear   87 63     45%   88 30.01 30.01      
May 11 20:53 S 8 10 Mostly Clear FEW250 75 63     66%   75 29.93 29.93      
May 11 10:53 SW 11 10 Mostly Clear FEW050 80 62     54%   81 30.02 30.02      
Jun 12 06:38 SSE 5 1 Light Drizzle and Fog/Mist SKC OVC005 71 71     100%   73 30.04   0    
Jun 12 03:28 S 6 10 Mostly Cloudy BKN013 72 70     93%   73 30        
Jun 11 18:53 S 10 10 Mostly Clear FEW050 86 67     53%   89 29.96 29.95      
Jun 11 15:53 S 10 10 Partly Cloudy SCT050 87 66     50%   89 29.99 29.99      
Jun 11 13:53 S 11 10 Partly Cloudy SCT050 87 64     46%   88 30.03 30.02      
Jun 11 08:53 S 6 10 Partly Cloudy SCT065 76 69     79%   77 30.04 30.03      
Jun 09 18:53 S 6 10 Mostly Cloudy FEW030 BKN250 78 57     48%   78 29.91 29.91      
Jun 09 14:53   10 Mostly Cloudy FEW060 BKN250 82 53     37%   81 29.95 29.95      
Jun 09 04:53 WSW 3 10 Clear CLR 59 59     100%     29.93 29.93      
Jun 06 12:53 ENE 13 10 Partly Cloudy SCT030 86 69     57%   90 29.82 29.82      
Jun 06 11:53 NE 11 10 Partly Cloudy SCT026 85 72     65%   91 29.83 29.82      
Jun 06 09:53 NE 10 10 Partly Cloudy FEW015 SCT250 80 73     79%   84 29.84 29.84      
Jun 05 13:53 E 5 7 Mostly Cloudy FEW015 BKN025 BKN250 77 71     82%   78 29.77 29.76 0